Fort Riley, KS

4:42 AM CST on February 22, 2017 (GMT -0600)
Marshall Army Air Field

Weather History for KFRI - November, 2012

Change the Weather History Date:

Tuesday, November 13, 2012

  Actual Average (KMHK) Record (KMHK)
Temperature  
Mean Temperature 40 °F -  
Max Temperature 57 °F 54 °F 84 °F (1999)
Min Temperature 22 °F 30 °F 8 °F (2014)
Degree Days  
Heating Degree Days 26    
Moisture  
Dew Point 26 °F    
Average Humidity 62    
Maximum Humidity 99    
Minimum Humidity 30    
Precipitation  
Precipitation 0.00 in - - ()
Sea Level Pressure  
Sea Level Pressure 30.39 in    
Wind  
Wind Speed 4 mph (South)    
Max Wind Speed 15 mph    
Max Gust Speed -    
Visibility 10 miles    
Events      
Averages and records for this station are not official NWS values.
T = Trace of Precipitation, MM = Missing Value Source: NWS Daily Summary

Daily Weather History Graph

Daily Weather History Graph

Search for Another Location

Airport or City:

Trip Planner

Search our weather history database for the weather conditions in past years. The results will help you decide how hot, cold, wet, or windy it might be!

Date:

Astronomy

Nov. 13, 2012 Rise Set
Actual Time 7:08 AM CST 5:13 PM CST
Civil Twilight 6:39 AM CST 5:42 PM CST
Nautical Twilight 6:07 AM CST 6:14 PM CST
Astronomical Twilight 5:36 AM CST 6:46 PM CST
Moon 6:47 AM CST (11/13) 5:08 PM CST (11/13)
Length of Visible Light 11h 02m
Length of Day
10h 05m
Waning Crescent, 0% of the Moon is Illuminated
Nov 13
Waning Crescent
Nov 13
New
Nov 20
First Quarter
Nov 28
Full
Dec 6
Last Quarter

Hourly Weather History & Observations

Time (CST) Temp. Windchill Dew Point Humidity Pressure Visibility Wind Dir Wind Speed Gust Speed Precip Events Conditions
12:55 AM 25.5 °F - 22.3 °F 88% 30.44 in 10.0 mi Calm Calm - N/A   Clear
1:55 AM 24.8 °F - 22.5 °F 91% 30.44 in 10.0 mi Calm Calm - N/A   Clear
2:55 AM 24.6 °F - 23.0 °F 94% 30.43 in 10.0 mi Calm Calm - N/A   Clear
3:55 AM 23.9 °F - 22.6 °F 95% 30.43 in 10.0 mi Calm Calm - N/A   Clear
4:55 AM 23.4 °F - 23.2 °F 99% 30.43 in 10.0 mi Calm Calm - N/A   Clear
5:55 AM 24.3 °F - 24.1 °F 99% 30.43 in 10.0 mi Calm Calm - N/A   Clear
6:55 AM 22.8 °F - 22.1 °F 97% 30.43 in 10.0 mi Calm Calm - N/A   Clear
7:55 AM 24.4 °F - 23.9 °F 98% 30.44 in 10.0 mi Calm Calm - N/A   Clear
8:55 AM 33.1 °F - 29.7 °F 87% 30.44 in 10.0 mi Calm Calm - N/A   Clear
9:55 AM 43.7 °F 39.7 °F 30.6 °F 60% 30.43 in 10.0 mi South 6.9 mph - N/A   Clear
10:55 AM 50.9 °F - 27.7 °F 41% 30.41 in 10.0 mi WSW 6.9 mph - N/A   Clear
11:55 AM 53.8 °F - 27.0 °F 36% 30.39 in 10.0 mi SW 13.8 mph - N/A   Clear
12:55 PM 55.8 °F - 27.7 °F 34% 30.35 in 10.0 mi SW 10.4 mph - N/A   Clear
1:55 PM 57.2 °F - 25.7 °F 30% 30.33 in 10.0 mi SW 15.0 mph - N/A   Clear
2:55 PM 55.6 °F - 27.3 °F 34% 30.31 in 10.0 mi SSW 12.7 mph - N/A   Clear
3:55 PM 54.5 °F - 25.9 °F 33% 30.32 in 10.0 mi SSW 12.7 mph - N/A   Clear
4:55 PM 51.6 °F - 27.9 °F 40% 30.32 in 10.0 mi South 6.9 mph - N/A   Partly Cloudy
5:55 PM 50.0 °F - 27.5 °F 42% 30.34 in 10.0 mi South 9.2 mph - N/A   Mostly Cloudy
6:55 PM 48.4 °F - 27.7 °F 45% 30.36 in 10.0 mi South 6.9 mph - N/A   Partly Cloudy
7:55 PM 47.1 °F - 27.0 °F 46% 30.36 in 10.0 mi South 8.1 mph - N/A   Clear
8:55 PM 46.2 °F 43.3 °F 27.7 °F 48% 30.37 in 10.0 mi SSW 5.8 mph - N/A   Scattered Clouds
9:55 PM 46.0 °F 41.0 °F 28.0 °F 50% 30.37 in 10.0 mi SSE 10.4 mph - N/A   Mostly Cloudy
10:55 PM 45.9 °F 40.0 °F 27.1 °F 48% 30.35 in 10.0 mi SSE 12.7 mph - N/A   Overcast
11:55 PM 43.7 °F 38.1 °F 25.7 °F 49% 30.34 in 10.0 mi SSE 10.4 mph - N/A   Mostly Cloudy